Location: Igloolik
(69.3800°N, 81.8000°W)
Time: 06:58:10
(UTC-05:00)

Amateur Radio Satellites - All Passes

Search period start: 27 March 2015 06:28
Search period end: 28 March 2015 06:28
Location: Igloolik, 69.3800°N, 81.8000°W

Satellite Date Start Highest point End Downlink Frequencies (MHz)
Time Altitude Azimuth
HORYU 2 27 Mar 06:28:17 06:32:33 43° 313° (NW) 06:36:48 437.375
QB50P2 27 Mar 06:32:00 06:34:57 19° 20° (NNE) 06:37:56 145.880/145.840
O/OREOS (USA 219) 27 Mar 06:33:16 06:37:51 63° 138° (SE) 06:42:25 437.305
HO-68 27 Mar 06:33:39 06:36:42 13° 58° (ENE) 06:39:59 435.675
ITAMSAT 1 27 Mar 06:34:05 06:38:38 31° 331° (NNW) 06:43:10 435.822/435.867
YUBILEINY 27 Mar 06:35:12 06:36:37 10° 340° (NNW) 06:37:54 435.215
UNISAT 6 27 Mar 06:42:58 06:46:24 23° 28° (NNE) 06:49:55 437.425
AIST 1 27 Mar 06:45:24 06:49:32 37° 311° (NW) 06:53:40
TIGRISAT 27 Mar 06:54:21 06:57:50 24° 31° (NNE) 07:01:26 435.000
Cubesat XI-IV 27 Mar 06:54:45 06:59:58 48° 100° (E) 07:05:09 437.490
CUTE-I 27 Mar 06:55:23 07:00:35 48° 100° (E) 07:05:45 437.470
GONETS M04 27 Mar 06:57:42 07:06:25 66° 262° (W) 07:15:06
POPSAT HIP 1 27 Mar 07:00:55 07:04:06 21° 27° (NNE) 07:07:19 437.405
Gurwin Techsat 1B 27 Mar 07:07:36 07:12:06 28° 337° (NNW) 07:16:35 435.225
CUSAT 1 27 Mar 07:10:13 07:13:19 78° 247° (WSW) 07:17:15 437.405
NANOSAT C BR1 27 Mar 07:12:27 07:15:45 23° 30° (NNE) 07:19:04 145.865
Oscar 19 27 Mar 07:13:25 07:17:23 23° 353° (N) 07:21:21 437.125/150
POLYITAN 1 27 Mar 07:14:12 07:17:31 23° 30° (NNE) 07:20:53 437.675
BUGSAT 1 27 Mar 07:14:26 07:17:29 21° 27° (NNE) 07:20:33 437.445
STRAND 1 27 Mar 07:19:06 07:23:43 32° 269° (W) 07:28:19 437.568
ANTELSAT 27 Mar 07:22:45 07:26:31 30° 38° (NE) 07:30:23 437.575/2403.000
BRITE-PL 27 Mar 07:25:42 07:28:01 15° 77° (ENE) 07:30:25 437.365/2234.400
JAS-2 27 Mar 07:26:19 07:33:57 57° 316° (NW) 07:41:30 435.910
AO-7 27 Mar 07:34:09 07:42:22 68° 321° (NW) 07:50:34 29.400- 29.500
COMPASS 1 27 Mar 07:35:54 07:36:50 11° 70° (ENE) 07:37:54 437.405
CUBESAT XI-V 27 Mar 07:36:30 07:39:59 20° 280° (W) 07:43:24 437.345
RS-15 27 Mar 07:37:27 07:41:03 12° 278° (W) 07:44:07 29.354- 29.394
DANDE 27 Mar 07:43:50 07:46:43 54° 251° (WSW) 07:50:18 436.750
QB50P1 27 Mar 07:52:29 07:56:09 29° 40° (NE) 07:59:51 145.935-145.965
DUCHIFAT 1 27 Mar 07:55:51 07:59:32 30° 40° (NE) 08:03:14 145.980
PRISM 27 Mar 07:56:26 07:58:42 14° 283° (WNW) 08:00:53 437.425
CANX-2 27 Mar 07:56:28 07:59:23 18° 80° (E) 08:02:21 2200.000
HORYU 2 27 Mar 08:04:55 08:08:27 23° 336° (NNW) 08:11:57 437.375
QB50P2 27 Mar 08:06:10 08:09:58 33° 43° (NE) 08:13:48 145.880/145.840
CUTE 1.7 + AOD 2 27 Mar 08:10:44 08:13:54 20° 83° (E) 08:17:07 437.475
O/OREOS (USA 219) 27 Mar 08:12:42 08:17:20 72° 342° (NNW) 08:21:57 437.305
ITAMSAT 1 27 Mar 08:12:59 08:17:03 24° 355° (N) 08:21:07 435.822/435.867
UNISAT 6 27 Mar 08:18:21 08:22:30 47° 51° (NE) 08:26:46 437.425
HO-68 27 Mar 08:20:54 08:27:09 31° 85° (E) 08:33:29 435.675
CINEMA 3 27 Mar 08:24:59 08:27:27 15° 78° (ENE) 08:30:03 145.822/145.860
AIST 1 27 Mar 08:25:08 08:28:23 19° 336° (NNW) 08:31:36
GOMX 1 27 Mar 08:25:16 08:28:41 24° 88° (E) 08:32:10 467.674
DOVE 4 27 Mar 08:26:20 08:29:29 20° 84° (E) 08:32:43 437.250
TIGRISAT 27 Mar 08:29:47 08:33:59 52° 54° (NE) 08:38:17 435.000
Cubesat XI-IV 27 Mar 08:35:02 08:40:24 69° 304° (NW) 08:45:44 437.490
POPSAT HIP 1 27 Mar 08:35:16 08:39:16 42° 50° (NE) 08:43:17 437.405
CUTE-I 27 Mar 08:35:38 08:41:00 69° 304° (NW) 08:46:18 437.470
DELFI C3 27 Mar 08:41:05 08:43:02 13° 75° (ENE) 08:45:04 145.870
SEEDS 27 Mar 08:43:43 08:47:21 26° 89° (E) 08:51:02 437.485
AAUSAT CUBESAT 2 27 Mar 08:45:06 08:48:29 23° 86° (E) 08:51:53 437.432
Gurwin Techsat 1B 27 Mar 08:46:45 08:50:54 24° 1° (N) 08:55:03 435.225
NANOSAT C BR1 27 Mar 08:46:53 08:50:56 48° 53° (NE) 08:55:02 145.865
BUGSAT 1 27 Mar 08:48:21 08:52:16 42° 50° (NE) 08:56:09 437.445
POLYITAN 1 27 Mar 08:48:44 08:52:49 49° 53° (NE) 08:56:56 437.675
Oscar 11 27 Mar 08:51:22 08:54:21 18° 80° (E) 08:57:22 145.826/435.025
Oscar 19 27 Mar 08:51:24 08:55:32 25° 18° (NNE) 08:59:42 437.125/150
CUSAT 1 27 Mar 08:53:27 08:55:49 18° 266° (W) 08:58:31 437.405
CUBEBUG 2 27 Mar 08:53:58 08:56:39 16° 79° (E) 08:59:26 437.445
UWE-3 27 Mar 08:54:27 08:56:53 15° 77° (ENE) 08:59:26 435.000/436.395/437.385
GONETS M04 27 Mar 08:54:34 09:01:59 32° 290° (WNW) 09:09:20
FUNcube-1 27 Mar 08:57:06 08:59:16 14° 75° (ENE) 09:01:33 145.935
ANTELSAT 27 Mar 08:58:35 09:02:54 73° 61° (ENE) 09:07:19 437.575/2403.000
STRAND 1 27 Mar 09:02:49 09:04:40 12° 293° (WNW) 09:06:21 437.568
BRITE-PL 27 Mar 09:03:39 09:07:43 46° 101° (E) 09:11:46 437.365/2234.400
ZACube-1 27 Mar 09:08:44 09:11:22 16° 78° (ENE) 09:14:07 437.345
COMPASS 1 27 Mar 09:10:03 09:13:55 32° 93° (E) 09:17:47 437.405
JAS-2 27 Mar 09:10:57 09:17:58 39° 341° (NNW) 09:25:03 435.910
AO-7 27 Mar 09:26:37 09:34:29 49° 347° (NNW) 09:42:20 29.400- 29.500
QB50P1 27 Mar 09:27:25 09:31:39 75° 62° (ENE) 09:35:54 145.935-145.965
DANDE 27 Mar 09:28:08 09:29:34 12° 270° (W) 09:31:04 436.750
DUCHIFAT 1 27 Mar 09:30:47 09:35:01 77° 61° (ENE) 09:39:14 145.980
CANX-2 27 Mar 09:32:01 09:36:16 53° 103° (ESE) 09:40:32 2200.000
HORYU 2 27 Mar 09:40:55 09:43:58 18° 359° (N) 09:47:01 437.375
QB50P2 27 Mar 09:41:21 09:45:36 88° 69° (ENE) 09:49:52 145.880/145.840
CUTE 1.7 + AOD 2 27 Mar 09:46:22 09:50:40 61° 105° (ESE) 09:54:58 437.475
ITAMSAT 1 27 Mar 09:51:05 09:55:24 27° 20° (NNE) 09:59:42 435.822/435.867
O/OREOS (USA 219) 27 Mar 09:52:33 09:57:09 64° 6° (N) 10:01:44 437.305
UNISAT 6 27 Mar 09:55:02 09:59:18 60° 254° (WSW) 10:03:42 437.425
UKube-1 27 Mar 09:56:49 10:00:16 22° 87° (E) 10:03:43 .
50 SAT 27 Mar 09:59:33 10:02:01 16° 80° (E) 10:04:34 437.505
CINEMA 3 27 Mar 10:01:38 10:05:44 46° 101° (E) 10:09:59 145.822/145.860
GOMX 1 27 Mar 10:03:19 10:07:31 79° 111° (ESE) 10:11:46 467.674
DX 1 27 Mar 10:03:38 10:07:14 25° 89° (E) 10:10:52 434.975-435.025
DOVE 4 27 Mar 10:03:54 10:08:04 66° 107° (ESE) 10:12:20 437.250
AIST 1 27 Mar 10:05:00 10:07:41 16° 1° (N) 10:10:22
TIGRISAT 27 Mar 10:06:37 10:10:50 52° 257° (WSW) 10:15:10 435.000
HO-68 27 Mar 10:08:58 10:16:12 69° 111° (ESE) 10:23:25 435.675
POPSAT HIP 1 27 Mar 10:10:52 10:15:06 66° 252° (WSW) 10:19:20 437.405
Cubesat XI-IV 27 Mar 10:15:11 10:20:01 35° 328° (NNW) 10:24:48 437.490
DELFI C3 27 Mar 10:15:25 10:19:21 40° 98° (E) 10:23:16 145.870
CUTE-I 27 Mar 10:15:45 10:20:35 35° 327° (NNW) 10:25:21 437.470
YUBILEINY 27 Mar 10:17:13 10:21:45 16° 42° (NE) 10:26:29 435.215
SEEDS 27 Mar 10:19:27 10:23:46 83° 112° (ESE) 10:28:05 437.485
HUMSAT D 27 Mar 10:19:31 10:23:03 25° 89° (E) 10:26:37 437.325/437.525
AAUSAT CUBESAT 2 27 Mar 10:20:33 10:24:49 72° 108° (ESE) 10:29:05 437.432
NANOSAT C BR1 27 Mar 10:22:40 10:26:50 57° 255° (WSW) 10:31:01 145.865
BUGSAT 1 27 Mar 10:23:33 10:27:41 65° 252° (WSW) 10:31:47 437.445
POLYITAN 1 27 Mar 10:24:37 10:28:47 55° 255° (WSW) 10:32:59 437.675
Gurwin Techsat 1B 27 Mar 10:25:12 10:29:43 29° 25° (NNE) 10:34:17 435.225
Oscar 11 27 Mar 10:27:11 10:31:30 54° 104° (ESE) 10:35:49 145.826/435.025
Oscar 19 27 Mar 10:29:13 10:34:00 41° 42° (NE) 10:38:50 437.125/150
CUBEBUG 2 27 Mar 10:30:12 10:34:22 49° 102° (ESE) 10:38:39 437.445
UWE-3 27 Mar 10:30:24 10:34:31 45° 100° (E) 10:38:45 435.000/436.395/437.385
FUNcube-1 27 Mar 10:32:42 10:36:46 41° 99° (E) 10:40:55 145.935
VELOX 1 27 Mar 10:33:31 10:37:09 24° 88° (E) 10:40:48 145.980
ANTELSAT 27 Mar 10:36:02 10:40:04 36° 264° (W) 10:44:11 437.575/2403.000
AISAT 27 Mar 10:37:04 10:40:46 26° 89° (E) 10:44:30 437.250
CUBEBUG 1 27 Mar 10:41:03 10:44:09 19° 82° (E) 10:47:17 437.445
BRITE-PL 27 Mar 10:42:20 10:46:27 54° 304° (WNW) 10:50:31 437.365/2234.400
ZACube-1 27 Mar 10:44:37 10:48:47 48° 101° (ESE) 10:53:02 437.345
COMPASS 1 27 Mar 10:45:45 10:50:02 80° 295° (WNW) 10:54:18 437.405
GONETS M04 27 Mar 10:51:22 10:56:04 16° 318° (NW) 11:00:36
JAS-2 27 Mar 10:54:50 11:01:36 36° 6° (N) 11:08:32 435.910
ESTCUBE 1 27 Mar 10:58:07 11:01:54 25° 87° (E) 11:05:40 437.505/2401.250
TISAT 1 27 Mar 10:59:43 11:00:42 11° 71° (ENE) 11:01:49 437.305
SPROUT 27 Mar 11:00:22 11:02:11 12° 73° (ENE) 11:04:07 437.525
QB50P1 27 Mar 11:04:01 11:07:55 34° 264° (W) 11:11:49 145.935-145.965
DUCHIFAT 1 27 Mar 11:07:23 11:11:14 33° 265° (W) 11:15:06 145.980
CANX-2 27 Mar 11:08:05 11:12:17 51° 305° (NW) 11:16:30 2200.000
HORYU 2 27 Mar 11:16:01 11:19:27 22° 23° (NNE) 11:22:56 437.375
QB50P2 27 Mar 11:18:18 11:22:01 29° 268° (W) 11:25:45 145.880/145.840
AO-7 27 Mar 11:18:24 11:26:17 50° 14° (NNE) 11:34:09 29.400- 29.500
CUTE 1.7 + AOD 2 27 Mar 11:22:27 11:26:35 46° 308° (NW) 11:30:44 437.475
ITAMSAT 1 27 Mar 11:29:07 11:34:03 45° 44° (NE) 11:39:02 435.822/435.867
O/OREOS (USA 219) 27 Mar 11:32:12 11:36:51 88° 210° (SSW) 11:41:27 437.305
UKube-1 27 Mar 11:32:48 11:37:10 69° 110° (ESE) 11:41:30 .
BEESAT 2 27 Mar 11:33:40 11:35:49 14° 127° (SE) 11:38:02 435.950
UNISAT 6 27 Mar 11:33:50 11:37:02 19° 278° (W) 11:40:13 437.425
50 SAT 27 Mar 11:33:56 11:37:52 50° 103° (ESE) 11:41:48 437.505
CINEMA 3 27 Mar 11:38:59 11:43:08 56° 303° (WNW) 11:47:24 145.822/145.860
DX 1 27 Mar 11:39:46 11:44:10 77° 112° (ESE) 11:48:32 434.975-435.025
GOMX 1 27 Mar 11:41:41 11:45:31 36° 314° (NW) 11:49:22 467.674
DOVE 4 27 Mar 11:41:53 11:45:49 41° 310° (NW) 11:49:50 437.250
AIST 1 27 Mar 11:43:38 11:46:58 20° 27° (NNE) 11:50:16
TIGRISAT 27 Mar 11:45:43 11:48:38 17° 281° (W) 11:51:31 435.000
POPSAT HIP 1 27 Mar 11:48:30 11:51:46 21° 275° (W) 11:54:59 437.405
DELFI C3 27 Mar 11:50:39 11:54:46 63° 301° (WNW) 11:58:51 145.870
Cubesat XI-IV 27 Mar 11:54:47 11:59:04 25° 352° (N) 12:03:21 437.490
HUMSAT D 27 Mar 11:55:11 11:59:25 82° 112° (ESE) 12:03:40 437.325/437.525
CUTE-I 27 Mar 11:55:20 11:59:37 25° 352° (N) 12:03:52 437.470
SEEDS 27 Mar 11:55:25 11:59:22 36° 314° (NW) 12:03:18 437.485
AAUSAT CUBESAT 2 27 Mar 11:56:21 12:00:20 40° 311° (NW) 12:04:19 437.432
HO-68 27 Mar 11:56:56 12:04:03 63° 316° (NW) 12:11:09 435.675
NANOSAT C BR1 27 Mar 12:00:35 12:03:36 18° 278° (W) 12:06:32 145.865
BUGSAT 1 27 Mar 12:00:48 12:03:56 20° 275° (W) 12:07:01 437.445
POLYITAN 1 27 Mar 12:02:43 12:05:39 18° 278° (W) 12:08:31 437.675
Oscar 11 27 Mar 12:03:30 12:07:46 52° 306° (NW) 12:12:01 145.826/435.025
Gurwin Techsat 1B 27 Mar 12:03:49 12:08:59 53° 49° (NE) 12:14:12 435.225
CUBEBUG 2 27 Mar 12:07:02 12:11:12 54° 304° (NW) 12:15:29 437.445
UWE-3 27 Mar 12:07:03 12:11:16 59° 302° (WNW) 12:15:33 435.000/436.395/437.385
Oscar 19 27 Mar 12:07:57 12:13:07 88° 239° (WSW) 12:18:20 437.125/150
YUBILEINY 27 Mar 12:08:27 12:15:48 32° 70° (ENE) 12:23:15 435.215
FUNcube-1 27 Mar 12:09:08 12:13:22 64° 301° (WNW) 12:17:40 145.935
VELOX 1 27 Mar 12:09:59 12:14:26 75° 111° (ESE) 12:18:52 145.980
BEESAT 3 27 Mar 12:12:13 12:15:20 21° 138° (SE) 12:18:29 437.485
AISAT 27 Mar 12:13:35 12:18:03 79° 112° (ESE) 12:22:29 437.250
SWISSCUBE 27 Mar 12:13:37 12:15:51 13° 72° (ENE) 12:18:13 437.505
ANTELSAT 27 Mar 12:16:23 12:18:13 12° 288° (WNW) 12:19:58 437.575/2403.000
BEESAT 27 Mar 12:17:01 12:19:15 13° 72° (ENE) 12:21:36 436.000
CUBEBUG 1 27 Mar 12:17:07 12:21:28 57° 106° (ESE) 12:25:45 437.445
BRITE-PL 27 Mar 12:21:03 12:24:25 23° 327° (NNW) 12:27:45 437.365/2234.400
ZACube-1 27 Mar 12:21:07 12:25:18 55° 304° (WNW) 12:29:34 437.345
COMPASS 1 27 Mar 12:21:37 12:25:23 31° 318° (NW) 12:29:08 437.405
AIST 2 27 Mar 12:30:59 12:33:43 17° 130° (SE) 12:36:29 435.215
TISAT 1 27 Mar 12:34:00 12:37:51 33° 95° (E) 12:41:41 437.305
ESTCUBE 1 27 Mar 12:34:54 12:39:30 75° 110° (ESE) 12:44:03 437.505/2401.250
SPROUT 27 Mar 12:35:31 12:39:32 38° 97° (E) 12:43:34 437.525
JAS-2 27 Mar 12:38:18 12:45:21 46° 32° (NNE) 12:52:45 435.910
QB50P1 27 Mar 12:43:42 12:45:06 11° 288° (WNW) 12:46:24 145.935-145.965
CANX-2 27 Mar 12:44:09 12:47:35 24° 328° (NNW) 12:51:01 2200.000
DUCHIFAT 1 27 Mar 12:47:15 12:48:25 11° 289° (WNW) 12:49:28 145.980
HORYU 2 27 Mar 12:51:08 12:55:19 41° 46° (NE) 12:59:33 437.375
CUTE 1.7 + AOD 2 27 Mar 12:58:29 13:01:49 22° 330° (NNW) 13:05:09 437.475
ITUPSAT 1 27 Mar 13:01:49 13:05:29 21° 83° (E) 13:09:10 437.325
ITAMSAT 1 27 Mar 13:08:09 13:13:24 81° 245° (WSW) 13:18:41 435.822/435.867
50 SAT 27 Mar 13:08:58 13:12:52 50° 305° (NW) 13:16:46 437.505
UKube-1 27 Mar 13:09:06 13:13:14 43° 312° (NW) 13:17:21 .
BEESAT 2 27 Mar 13:09:19 13:12:58 30° 149° (SSE) 13:16:39 435.950
AO-7 27 Mar 13:10:11 13:18:26 70° 41° (NE) 13:26:41 29.400- 29.500
O/OREOS (USA 219) 27 Mar 13:11:43 13:16:02 40° 234° (SW) 13:20:18 437.305
DX 1 27 Mar 13:16:10 13:20:16 39° 314° (NW) 13:24:19 434.975-435.025
CINEMA 3 27 Mar 13:16:23 13:19:49 25° 326° (NW) 13:23:18 145.822/145.860
DOVE 4 27 Mar 13:19:47 13:22:53 20° 333° (NNW) 13:25:59 437.250
GOMX 1 27 Mar 13:19:54 13:22:51 19° 337° (NNW) 13:25:47 467.674
AIST 1 27 Mar 13:21:32 13:25:44 41° 51° (NE) 13:29:53
DELFI C3 27 Mar 13:26:00 13:29:27 26° 323° (NW) 13:32:52 145.870
HUMSAT D 27 Mar 13:31:08 13:34:59 36° 313° (NW) 13:38:51 437.325/437.525
SEEDS 27 Mar 13:31:15 13:34:20 19° 337° (NNW) 13:37:23 437.485
AAUSAT CUBESAT 2 27 Mar 13:32:04 13:35:12 20° 334° (NNW) 13:38:19 437.432
Cubesat XI-IV 27 Mar 13:33:35 13:37:59 27° 16° (NNE) 13:42:23 437.490
CUTE-I 27 Mar 13:34:06 13:38:30 26° 16° (NNE) 13:42:53 437.470
Oscar 11 27 Mar 13:39:47 13:43:19 24° 328° (NNW) 13:46:49 145.826/435.025
STARS 27 Mar 13:41:30 13:42:46 11° 71° (ENE) 13:44:10 437.465
Gurwin Techsat 1B 27 Mar 13:43:41 13:49:00 66° 252° (WSW) 13:54:21 435.225
UWE-3 27 Mar 13:43:46 13:47:17 25° 325° (NW) 13:50:51 435.000/436.395/437.385
CUBEBUG 2 27 Mar 13:43:55 13:47:21 24° 326° (NNW) 13:50:51 437.445
HO-68 27 Mar 13:44:24 13:51:03 42° 342° (NNW) 13:57:42 435.675
FUNcube-1 27 Mar 13:45:39 13:49:14 27° 323° (NW) 13:52:51 145.935
VELOX 1 27 Mar 13:46:42 13:50:52 41° 314° (NW) 13:55:01 145.980
Oscar 19 27 Mar 13:48:29 13:53:07 33° 268° (W) 13:57:46 437.125/150
BEESAT 3 27 Mar 13:48:47 13:52:38 38° 160° (SSE) 13:56:31 437.485
AISAT 27 Mar 13:50:21 13:54:29 39° 315° (NW) 13:58:36 437.250
SWISSCUBE 27 Mar 13:50:41 13:55:11 37° 96° (E) 13:59:39 437.505
CUBEBUG 1 27 Mar 13:53:37 13:57:52 49° 308° (NW) 14:02:04 437.445
BEESAT 27 Mar 13:54:04 13:58:34 37° 96° (E) 14:03:02 436.000
COMPASS 1 27 Mar 13:57:16 14:00:09 18° 341° (NNW) 14:02:59 437.405
ZACube-1 27 Mar 13:57:39 14:01:07 25° 326° (NW) 14:04:37 437.345
BRITE-PL 27 Mar 13:59:17 14:01:52 16° 352° (N) 14:04:24 437.365/2234.400
YUBILEINY 27 Mar 14:02:38 14:11:20 66° 97° (E) 14:20:05 435.215
AIST 2 27 Mar 14:07:30 14:11:23 33° 153° (SSE) 14:15:17 435.215
TISAT 1 27 Mar 14:09:49 14:14:03 77° 298° (WNW) 14:18:15 437.305
SPROUT 27 Mar 14:11:39 14:15:57 70° 300° (WNW) 14:20:14 437.525
ESTCUBE 1 27 Mar 14:11:56 14:16:15 42° 313° (NW) 14:20:31 437.505/2401.250
CANX-2 27 Mar 14:19:45 14:22:25 16° 351° (N) 14:25:04 2200.000
JAS-2 27 Mar 14:22:21 14:29:46 76° 57° (ENE) 14:37:40 435.910
HORYU 2 27 Mar 14:27:22 14:31:50 76° 249° (WSW) 14:36:21 437.375
CUTE 1.7 + AOD 2 27 Mar 14:33:58 14:36:35 16° 354° (N) 14:39:12 437.475
KKS-1 27 Mar 14:39:16 14:43:04 27° 90° (E) 14:46:54 437.445
ITUPSAT 1 27 Mar 14:39:33 14:44:21 60° 106° (ESE) 14:49:08 437.325
GONETS M04 27 Mar 14:40:31 14:41:16 10° 19° (NNE) 14:42:08
50 SAT 27 Mar 14:44:04 14:47:11 22° 327° (NNW) 14:50:17 437.505
UKube-1 27 Mar 14:45:16 14:48:39 22° 335° (NNW) 14:52:00 .
BEESAT 2 27 Mar 14:46:34 14:50:34 45° 172° (S) 14:54:34 435.950
ITAMSAT 1 27 Mar 14:49:02 14:53:39 30° 270° (W) 14:58:15 435.822/435.867
O/OREOS (USA 219) 27 Mar 14:51:52 14:54:28 15° 257° (WSW) 14:56:58 437.305
DX 1 27 Mar 14:52:24 14:55:44 21° 337° (NNW) 14:59:01 434.975-435.025
CINEMA 3 27 Mar 14:53:23 14:55:59 16° 349° (N) 14:58:35 145.822/145.860
DOVE 4 27 Mar 14:57:04 14:59:30 15° 357° (N) 15:01:56 437.250
GOMX 1 27 Mar 14:57:21 14:59:47 15° 2° (N) 15:02:14 467.674
AIST 1 27 Mar 14:59:19 15:03:42 67° 255° (WSW) 15:08:00
DELFI C3 27 Mar 15:01:04 15:03:36 16° 346° (NNW) 15:06:07 145.870
AO-7 27 Mar 15:03:13 15:11:31 68° 248° (WSW) 15:19:49 29.400- 29.500
SEEDS 27 Mar 15:06:23 15:08:56 16° 0° (N) 15:11:28 437.485
HUMSAT D 27 Mar 15:06:57 15:09:55 19° 337° (NNW) 15:12:54 437.325/437.525
AAUSAT CUBESAT 2 27 Mar 15:07:09 15:09:39 15° 357° (N) 15:12:09 437.432
PCSat 27 Mar 15:07:42 15:11:00 17° 115° (ESE) 15:14:25 145.827
Cubesat XI-IV 27 Mar 15:12:09 15:17:11 42° 40° (NE) 15:22:13 437.490
CUTE-I 27 Mar 15:12:39 15:17:40 41° 40° (NE) 15:22:42 437.470
Oscar 11 27 Mar 15:15:36 15:18:23 17° 352° (N) 15:21:10 145.826/435.025
STARS 27 Mar 15:16:38 15:20:38 33° 95° (E) 15:24:40 437.465
UWE-3 27 Mar 15:20:06 15:22:47 17° 348° (NNW) 15:25:29 435.000/436.395/437.385
CUBEBUG 2 27 Mar 15:20:21 15:22:59 16° 350° (N) 15:25:37 437.445
FUNcube-1 27 Mar 15:21:50 15:24:33 17° 346° (NNW) 15:27:17 145.935
VELOX 1 27 Mar 15:23:15 15:26:40 22° 337° (NNW) 15:30:03 145.980
Gurwin Techsat 1B 27 Mar 15:25:36 15:29:59 25° 276° (W) 15:34:19 435.225
BEESAT 3 27 Mar 15:26:15 15:30:15 46° 183° (S) 15:34:14 437.485
AISAT 27 Mar 15:26:55 15:30:17 21° 338° (NNW) 15:33:38 437.250
SWISSCUBE 27 Mar 15:28:38 15:33:29 79° 298° (WNW) 15:38:18 437.505
CUBEBUG 1 27 Mar 15:30:04 15:33:35 24° 330° (NNW) 15:37:02 437.445
HO-68 27 Mar 15:31:08 15:37:39 39° 8° (N) 15:44:12 435.675
BEESAT 27 Mar 15:32:00 15:36:51 79° 298° (WNW) 15:41:40 436.000
COMPASS 1 27 Mar 15:32:04 15:34:35 16° 5° (N) 15:37:07 437.405
Oscar 19 27 Mar 15:32:09 15:34:11 12° 293° (WNW) 15:36:06 437.125/150
ZACube-1 27 Mar 15:33:47 15:36:25 16° 349° (N) 15:39:04 437.345
BRITE-PL 27 Mar 15:36:22 15:39:10 17° 16° (NNE) 15:41:56 437.365/2234.400
AIST 2 27 Mar 15:45:19 15:49:28 47° 176° (S) 15:53:37 435.215
TISAT 1 27 Mar 15:45:47 15:49:29 30° 320° (NW) 15:53:10 437.305
SPROUT 27 Mar 15:47:54 15:51:37 28° 322° (NW) 15:55:17 437.525
ESTCUBE 1 27 Mar 15:48:47 15:52:20 23° 336° (NNW) 15:55:51 437.505/2401.250
CANX-2 27 Mar 15:54:18 15:57:05 17° 15° (NNE) 15:59:54 2200.000
MOZHAYETS 4 27 Mar 15:58:03 16:01:27 20° 80° (E) 16:04:54
YUBILEINY 27 Mar 15:59:35 16:08:25 67° 305° (NW) 16:17:17 435.215
HORYU 2 27 Mar 16:05:28 16:09:12 25° 272° (W) 16:12:55 437.375
JAS-2 27 Mar 16:07:59 16:15:14 56° 262° (W) 16:22:59 435.910
CUTE 1.7 + AOD 2 27 Mar 16:08:24 16:11:15 18° 17° (NNE) 16:14:09 437.475
AUBIESAT-1 27 Mar 16:15:11 16:15:51 10° 77° (ENE) 16:16:39 437.475
KKS-1 27 Mar 16:15:52 16:20:21 83° 113° (ESE) 16:24:50 437.445
ITUPSAT 1 27 Mar 16:17:35 16:22:18 52° 309° (NW) 16:26:59 437.325
50 SAT 27 Mar 16:18:48 16:21:02 15° 350° (N) 16:23:16 437.505
UKube-1 27 Mar 16:20:47 16:23:41 18° 359° (N) 16:26:33 .
BEESAT 2 27 Mar 16:24:20 16:28:17 41° 195° (SSW) 16:32:14 435.950
DX 1 27 Mar 16:27:56 16:30:50 18° 1° (N) 16:33:44 434.975-435.025
GONETS M04 27 Mar 16:29:02 16:34:21 18° 49° (NE) 16:39:52
CINEMA 3 27 Mar 16:29:18 16:31:56 17° 13° (NNE) 16:34:37 145.822/145.860
DOVE 4 27 Mar 16:33:12 16:36:04 18° 21° (NNE) 16:38:57 437.250
ITAMSAT 1 27 Mar 16:33:26 16:35:00 11° 295° (WNW) 16:36:24 435.822/435.867
GOMX 1 27 Mar 16:33:41 16:36:46 20° 26° (NNE) 16:39:49 467.674
DELFI C3 27 Mar 16:35:07 16:37:31 15° 9° (N) 16:39:57 145.870
M-CUBED/EXP-1 PRIME 27 Mar 16:36:25 16:38:57 14° 84° (E) 16:41:39 437.505
AIST 1 27 Mar 16:37:26 16:40:45 21° 278° (W) 16:43:59
SEEDS 27 Mar 16:40:28 16:43:32 20° 24° (NNE) 16:46:36 437.485
AAUSAT CUBESAT 2 27 Mar 16:41:10 16:44:03 18° 21° (NNE) 16:46:58 437.432
HUMSAT D 27 Mar 16:42:06 16:44:30 15° 360° (N) 16:46:56 437.325/437.525
PCSat 27 Mar 16:48:16 16:53:13 37° 138° (SE) 16:58:13 145.827
Oscar 11 27 Mar 16:50:22 16:53:19 18° 16° (NNE) 16:56:17 145.826/435.025
Cubesat XI-IV 27 Mar 16:51:36 16:57:01 90° 70° (ENE) 17:02:27 437.490
CUTE-I 27 Mar 16:52:05 16:57:29 90° 72° (ENE) 17:02:55 437.470
STARS 27 Mar 16:53:07 16:57:33 81° 298° (WNW) 17:01:58 437.465
UWE-3 27 Mar 16:55:26 16:58:04 17° 12° (NNE) 17:00:46 435.000/436.395/437.385
CUBEBUG 2 27 Mar 16:55:45 16:58:27 17° 14° (NNE) 17:01:10 437.445
FUNcube-1 27 Mar 16:57:02 16:59:39 16° 10° (N) 17:02:17 145.935
AO-7 27 Mar 16:58:36 17:05:56 32° 274° (W) 17:13:10 29.400- 29.500
VELOX 1 27 Mar 16:59:07 17:02:04 18° 0° (N) 17:05:02 145.980
AISAT 27 Mar 17:02:46 17:05:43 18° 1° (N) 17:08:40 437.250
BEESAT 3 27 Mar 17:04:02 17:07:48 33° 206° (SSW) 17:11:33 437.485
COMPASS 1 27 Mar 17:05:56 17:09:07 21° 28° (NNE) 17:12:20 437.405
CUBEBUG 1 27 Mar 17:05:58 17:08:50 17° 354° (N) 17:11:40 437.445
SWISSCUBE 27 Mar 17:06:36 17:10:59 35° 322° (NW) 17:15:19 437.505
ZACube-1 27 Mar 17:08:52 17:11:32 17° 13° (NNE) 17:14:15 437.345
BEESAT 27 Mar 17:09:58 17:14:21 35° 321° (NW) 17:18:40 436.000
BRITE-PL 27 Mar 17:12:59 17:16:46 29° 40° (NE) 17:20:26 437.365/2234.400
HO-68 27 Mar 17:17:32 17:24:26 52° 34° (NNE) 17:31:22 435.675
TISAT 1 27 Mar 17:21:29 17:24:21 18° 343° (NNW) 17:27:12 437.305
AIST 2 27 Mar 17:23:34 17:27:37 40° 199° (SSW) 17:31:39 435.215
SPROUT 27 Mar 17:23:51 17:26:43 18° 345° (NNW) 17:29:34 437.525
ESTCUBE 1 27 Mar 17:24:57 17:28:02 18° 360° (N) 17:31:06 437.505/2401.250
CANX-2 27 Mar 17:28:22 17:32:00 28° 38° (NE) 17:35:41 2200.000
MOZHAYETS 4 27 Mar 17:35:01 17:39:40 57° 104° (ESE) 17:44:17
STRAND 1 27 Mar 17:35:02 17:37:40 14° 71° (ENE) 17:40:26 437.568
CUBESAT XI-V 27 Mar 17:39:05 17:42:22 19° 79° (E) 17:45:42 437.345
CUTE 1.7 + AOD 2 27 Mar 17:42:29 17:46:12 30° 41° (NE) 17:49:59 437.475
PRISM 27 Mar 17:46:29 17:49:00 15° 79° (E) 17:51:35 437.425
AUBIESAT-1 27 Mar 17:48:02 17:52:11 29° 100° (E) 17:56:26 437.475
50 SAT 27 Mar 17:52:23 17:54:43 15° 14° (NNE) 17:57:05 437.505
KKS-1 27 Mar 17:52:40 17:56:48 38° 315° (NW) 18:00:55 437.445
UKube-1 27 Mar 17:55:24 17:58:41 21° 22° (NNE) 18:01:58 .
ITUPSAT 1 27 Mar 17:55:29 17:59:33 27° 332° (NNW) 18:03:33 437.325
JAS-2 27 Mar 17:55:57 18:02:03 26° 288° (WNW) 18:08:21 435.910
RS-15 27 Mar 17:57:19 18:03:48 19° 95° (E) 18:10:46 29.354- 29.394
YUBILEINY 27 Mar 17:58:37 18:06:56 41° 334° (NNW) 18:15:15 435.215
BEESAT 2 27 Mar 18:02:20 18:05:46 24° 218° (SW) 18:09:09 435.950
DX 1 27 Mar 18:02:35 18:05:57 22° 25° (NNE) 18:09:21 434.975-435.025
CINEMA 3 27 Mar 18:04:39 18:08:09 26° 37° (NE) 18:11:41 145.822/145.860
DELFI C3 27 Mar 18:08:23 18:11:36 23° 32° (NNE) 18:14:51 145.870
DOVE 4 27 Mar 18:09:12 18:13:00 34° 45° (NE) 18:16:47 437.250
GOMX 1 27 Mar 18:10:10 18:14:10 40° 49° (NE) 18:18:06 467.674
M-CUBED/EXP-1 PRIME 27 Mar 18:10:37 18:15:05 39° 106° (ESE) 18:19:40 437.505
SEEDS 27 Mar 18:14:36 18:18:30 36° 47° (NE) 18:22:27 437.485
AAUSAT CUBESAT 2 27 Mar 18:15:01 18:18:47 32° 44° (NE) 18:22:35 437.432
HUMSAT D 27 Mar 18:16:09 18:19:04 19° 24° (NNE) 18:22:03 437.325/437.525
GONETS M04 27 Mar 18:21:04 18:28:47 38° 77° (ENE) 18:36:39
Oscar 11 27 Mar 18:24:45 18:28:31 29° 39° (NE) 18:32:18 145.826/435.025
STARS 27 Mar 18:29:44 18:33:41 32° 320° (NW) 18:37:36 437.465
UWE-3 27 Mar 18:30:07 18:33:34 26° 35° (NE) 18:37:05 435.000/436.395/437.385
CUBEBUG 2 27 Mar 18:30:36 18:34:07 27° 37° (NE) 18:37:43 437.445
PCSat 27 Mar 18:30:45 18:36:08 63° 162° (SSE) 18:41:31 145.827
FUNcube-1 27 Mar 18:31:32 18:34:54 24° 34° (NNE) 18:38:21 145.935
Cubesat XI-IV 27 Mar 18:32:48 18:37:45 35° 267° (W) 18:42:41 437.490
CUTE-I 27 Mar 18:33:16 18:38:12 35° 267° (W) 18:43:07 437.470
VELOX 1 27 Mar 18:34:05 18:37:29 22° 24° (NNE) 18:40:55 145.980
AISAT 27 Mar 18:37:44 18:41:11 23° 25° (NNE) 18:44:38 437.250
COMPASS 1 27 Mar 18:40:05 18:44:05 43° 51° (NE) 18:48:08 437.405
CUBEBUG 1 27 Mar 18:40:53 18:43:59 19° 18° (NNE) 18:47:05 437.445
BEESAT 3 27 Mar 18:42:16 18:45:00 17° 228° (SW) 18:47:37 437.485
ZACube-1 27 Mar 18:43:23 18:46:53 26° 37° (NE) 18:50:27 437.345
SWISSCUBE 27 Mar 18:44:12 18:47:53 22° 345° (NNW) 18:51:33 437.505
BEESAT 27 Mar 18:47:33 18:51:14 22° 345° (NNW) 18:54:53 436.000
BRITE-PL 27 Mar 18:50:29 18:54:58 74° 61° (ENE) 18:59:12 437.365/2234.400
TISAT 1 27 Mar 18:56:20 18:58:57 16° 7° (N) 19:01:33 437.305
AO-7 27 Mar 18:57:50 19:01:59 14° 303° (WNW) 19:05:53 29.400- 29.500
SPROUT 27 Mar 18:58:51 19:01:34 17° 9° (N) 19:04:17 437.525
ESTCUBE 1 27 Mar 19:00:13 19:03:44 22° 23° (NNE) 19:07:15 437.505/2401.250
AIST 2 27 Mar 19:02:05 19:05:29 23° 221° (SW) 19:08:49 435.215
CANX-2 27 Mar 19:03:14 19:07:28 67° 61° (ENE) 19:11:46 2200.000
HO-68 27 Mar 19:04:40 19:11:55 90° 303° (WNW) 19:19:11 435.675
MOZHAYETS 4 27 Mar 19:12:24 19:16:58 52° 306° (NW) 19:21:31
STRAND 1 27 Mar 19:13:37 19:18:25 38° 96° (E) 19:23:13 437.568
SO-50 27 Mar 19:14:56 19:16:00 11° 117° (ESE) 19:17:12 436.795
CUBESAT XI-V 27 Mar 19:16:14 19:20:52 54° 103° (ESE) 19:25:27 437.345
CUTE 1.7 + AOD 2 27 Mar 19:17:28 19:21:44 76° 63° (ENE) 19:26:04 437.475
PRISM 27 Mar 19:21:24 19:25:31 47° 102° (ESE) 19:29:37 437.425
AUBIESAT-1 27 Mar 19:22:51 19:27:36 77° 121° (ESE) 19:32:29 437.475
50 SAT 27 Mar 19:25:23 19:28:37 25° 37° (NE) 19:31:54 437.505
KKS-1 27 Mar 19:29:15 19:32:37 21° 339° (NNW) 19:35:57 437.445
UKube-1 27 Mar 19:29:59 19:34:02 39° 45° (NE) 19:38:06 .
ITUPSAT 1 27 Mar 19:32:47 19:36:19 21° 356° (N) 19:39:51 437.325
DX 1 27 Mar 19:37:20 19:41:28 42° 47° (NE) 19:45:37 434.975-435.025
CINEMA 3 27 Mar 19:40:45 19:44:54 66° 59° (ENE) 19:49:05 145.822/145.860
DELFI C3 27 Mar 19:42:11 19:46:09 50° 55° (NE) 19:50:11 145.870
BEESAT 2 27 Mar 19:42:21 19:42:44 10° 239° (WSW) 19:43:02 435.950
M-CUBED/EXP-1 PRIME 27 Mar 19:45:35 19:50:21 83° 308° (NW) 19:55:15 437.505
DOVE 4 27 Mar 19:46:19 19:50:34 86° 246° (WSW) 19:54:46 437.250
JAS-2 27 Mar 19:47:24 19:50:17 12° 316° (NW) 19:52:58 435.910
GOMX 1 27 Mar 19:47:55 19:52:15 70° 251° (WSW) 19:56:27 467.674
SEEDS 27 Mar 19:49:51 19:54:06 81° 249° (WSW) 19:58:25 437.485
AAUSAT CUBESAT 2 27 Mar 19:49:53 19:54:07 87° 66° (ENE) 19:58:23 437.432
HUMSAT D 27 Mar 19:50:14 19:54:01 36° 46° (NE) 19:57:52 437.325/437.525
YUBILEINY 27 Mar 19:58:14 20:06:16 36° 5° (N) 20:14:20 435.215
Oscar 11 27 Mar 19:59:56 20:04:15 71° 61° (ENE) 20:08:38 145.826/435.025
RS-15 27 Mar 20:03:13 20:12:54 40° 124° (SE) 20:23:00 29.354- 29.394
UWE-3 27 Mar 20:05:28 20:09:35 61° 59° (ENE) 20:13:48 435.000/436.395/437.385
STARS 27 Mar 20:06:04 20:09:13 20° 343° (NNW) 20:12:22 437.465
CUBEBUG 2 27 Mar 20:06:14 20:10:22 67° 60° (ENE) 20:14:35 437.445
FUNcube-1 27 Mar 20:06:36 20:10:40 55° 57° (ENE) 20:14:50 145.935
VELOX 1 27 Mar 20:09:07 20:13:18 41° 47° (NE) 20:17:29 145.980
AISAT 27 Mar 20:12:50 20:17:03 43° 48° (NE) 20:21:16 437.250
PCSat 27 Mar 20:13:56 20:19:23 70° 186° (S) 20:24:48 145.827
COMPASS 1 27 Mar 20:15:30 20:19:43 65° 253° (WSW) 20:23:59 437.405
CUBEBUG 1 27 Mar 20:15:31 20:19:26 32° 41° (NE) 20:23:21 437.445
GONETS M04 27 Mar 20:16:02 20:24:45 79° 104° (ESE) 20:33:35
Cubesat XI-IV 27 Mar 20:16:57 20:19:34 13° 292° (WNW) 20:22:04 437.490
CUTE-I 27 Mar 20:17:23 20:19:59 13° 292° (WNW) 20:22:28 437.470
ZACube-1 27 Mar 20:18:38 20:22:46 64° 60° (ENE) 20:26:59 437.345
SWISSCUBE 27 Mar 20:20:58 20:24:32 21° 9° (N) 20:28:07 437.505
BEESAT 27 Mar 20:24:19 20:27:52 21° 9° (N) 20:31:26 436.000
BRITE-PL 27 Mar 20:29:46 20:33:54 35° 265° (W) 20:37:50 437.365/2234.400
TISAT 1 27 Mar 20:30:20 20:33:39 23° 30° (NNE) 20:36:58 437.305
SPROUT 27 Mar 20:33:07 20:36:34 24° 32° (NNE) 20:40:03 437.525
ESTCUBE 1 27 Mar 20:35:31 20:39:47 41° 47° (NE) 20:44:05 437.505/2401.250
CUSAT 1 27 Mar 20:36:29 20:38:06 15° 91° (E) 20:39:48 437.405
CANX-2 27 Mar 20:39:41 20:43:42 39° 263° (W) 20:47:46 2200.000
MOZHAYETS 4 27 Mar 20:49:41 20:53:32 26° 330° (NNW) 20:57:22
SO-50 27 Mar 20:51:15 20:55:10 26° 139° (SE) 20:59:13 436.795
STRAND 1 27 Mar 20:52:56 20:58:07 81° 300° (WNW) 21:03:16 437.568
HO-68 27 Mar 20:53:37 21:00:26 43° 264° (W) 21:07:16 435.675
CUBESAT XI-V 27 Mar 20:53:49 20:58:26 55° 305° (NW) 21:02:58 437.345
CUTE 1.7 + AOD 2 27 Mar 20:54:08 20:58:04 34° 266° (W) 21:02:01 437.475
PRISM 27 Mar 20:56:59 21:01:09 56° 305° (NW) 21:05:17 437.425
AUBIESAT-1 27 Mar 20:57:47 21:02:19 49° 324° (NW) 21:06:59 437.475
50 SAT 27 Mar 20:59:09 21:03:03 62° 59° (ENE) 21:07:01 437.505
KKS-1 27 Mar 21:05:06 21:08:05 18° 2° (N) 21:11:04 437.445
UKube-1 27 Mar 21:05:38 21:10:01 79° 249° (WSW) 21:14:25 .
ITUPSAT 1 27 Mar 21:09:13 21:13:01 24° 20° (NNE) 21:16:51 437.325
DANDE 27 Mar 21:13:09 21:15:19 22° 99° (E) 21:17:31 436.750
DX 1 27 Mar 21:13:14 21:17:37 71° 250° (WSW) 21:22:00 434.975-435.025
DELFI C3 27 Mar 21:17:24 21:21:25 51° 257° (WSW) 21:25:29 145.870
CINEMA 3 27 Mar 21:18:31 21:22:26 38° 263° (W) 21:26:22 145.822/145.860
M-CUBED/EXP-1 PRIME 27 Mar 21:20:33 21:24:57 41° 330° (NNW) 21:29:30 437.505
DOVE 4 27 Mar 21:25:22 21:28:58 26° 270° (W) 21:32:30 437.250
HUMSAT D 27 Mar 21:25:27 21:29:36 80° 248° (WSW) 21:33:48 437.325/437.525
AAUSAT CUBESAT 2 27 Mar 21:26:32 21:30:15 29° 269° (W) 21:33:59 437.432
SEEDS 27 Mar 21:26:58 21:30:33 25° 272° (W) 21:34:07 437.485
GOMX 1 27 Mar 21:27:47 21:31:10 22° 274° (W) 21:34:26 467.674
UNISAT 6 27 Mar 21:32:44 21:35:17 15° 76° (ENE) 21:37:59 437.425
Oscar 11 27 Mar 21:36:43 21:40:47 37° 264° (W) 21:44:52 145.826/435.025
STARS 27 Mar 21:41:33 21:44:29 18° 7° (N) 21:47:26 437.465
UWE-3 27 Mar 21:42:24 21:46:23 42° 261° (W) 21:50:26 435.000/436.395/437.385
POPSAT HIP 1 27 Mar 21:43:05 21:44:16 11° 72° (ENE) 21:45:33 437.405
FUNcube-1 27 Mar 21:43:09 21:47:11 46° 259° (W) 21:51:18 145.935
CUBEBUG 2 27 Mar 21:43:29 21:47:24 38° 263° (W) 21:51:22 437.445
TIGRISAT 27 Mar 21:43:48 21:46:40 17° 79° (E) 21:49:38 435.000
VELOX 1 27 Mar 21:45:15 21:49:44 75° 249° (WSW) 21:54:12 145.980
AISAT 27 Mar 21:49:06 21:53:34 70° 250° (WSW) 21:58:01 437.250
CUBEBUG 1 27 Mar 21:51:02 21:55:27 81° 64° (ENE) 21:59:52 437.445
COMPASS 1 27 Mar 21:52:59 21:56:13 21° 276° (W) 21:59:25 437.405
NANOSAT C BR1 27 Mar 21:54:05 21:55:56 13° 75° (ENE) 21:57:53 145.865
ZACube-1 27 Mar 21:55:28 21:59:25 40° 262° (W) 22:03:26 437.345
POLYITAN 1 27 Mar 21:56:24 21:58:26 13° 75° (ENE) 22:00:35 437.675
YUBILEINY 27 Mar 21:56:55 22:05:27 47° 36° (NE) 22:13:57 435.215
SWISSCUBE 27 Mar 21:57:11 22:01:21 30° 33° (NNE) 22:05:33 437.505
PCSat 27 Mar 21:57:13 22:02:29 50° 211° (SSW) 22:07:43 145.827
BEESAT 27 Mar 22:00:30 22:04:41 30° 33° (NNE) 22:08:52 436.000
TISAT 1 27 Mar 22:04:43 22:08:48 48° 53° (NE) 22:12:53 437.305
SPROUT 27 Mar 22:07:52 22:12:03 53° 55° (NE) 22:16:16 437.525
ESTCUBE 1 27 Mar 22:11:56 22:16:32 77° 250° (WSW) 22:21:07 437.505/2401.250
BRITE-PL 27 Mar 22:12:15 22:13:46 11° 288° (WNW) 22:15:10 437.365/2234.400
ANTELSAT 27 Mar 22:12:49 22:16:26 23° 86° (E) 22:20:08 437.575/2403.000
RS-15 27 Mar 22:12:55 22:23:38 63° 154° (SSE) 22:34:48 29.354- 29.394
GONETS M04 27 Mar 22:13:39 22:22:16 57° 313° (NW) 22:30:58
CUSAT 1 27 Mar 22:17:50 22:20:27 83° 299° (WNW) 22:23:14 437.405
CANX-2 27 Mar 22:18:50 22:20:53 13° 287° (WNW) 22:22:50 2200.000
MOZHAYETS 4 27 Mar 22:26:25 22:29:37 19° 353° (N) 22:32:49
SO-50 27 Mar 22:30:22 22:34:57 43° 162° (SSE) 22:39:38 436.795
CUBESAT XI-V 27 Mar 22:31:19 22:35:14 26° 328° (NNW) 22:39:06 437.345
STRAND 1 27 Mar 22:32:15 22:36:58 37° 322° (NW) 22:41:39 437.568
AUBIESAT-1 27 Mar 22:32:27 22:36:32 31° 346° (NNW) 22:40:45 437.475
PRISM 27 Mar 22:32:35 22:36:05 25° 328° (NNW) 22:39:33 437.425
CUTE 1.7 + AOD 2 27 Mar 22:33:52 22:35:20 11° 290° (WNW) 22:36:41 437.475
QB50P1 27 Mar 22:34:22 22:37:33 21° 85° (E) 22:40:47 145.935-145.965
50 SAT 27 Mar 22:34:29 22:38:13 39° 262° (W) 22:42:00 437.505
DUCHIFAT 1 27 Mar 22:37:21 22:40:34 21° 85° (E) 22:43:50 145.980
KKS-1 27 Mar 22:40:06 22:43:36 23° 26° (NNE) 22:47:06 437.445
UKube-1 27 Mar 22:43:09 22:46:49 25° 270° (W) 22:50:27 .
HO-68 27 Mar 22:45:25 22:50:19 19° 291° (WNW) 22:55:05 435.675
ITUPSAT 1 27 Mar 22:45:34 22:50:04 40° 44° (NE) 22:54:36 437.325
QB50P2 27 Mar 22:48:25 22:51:55 24° 88° (E) 22:55:26 145.880/145.840
DX 1 27 Mar 22:51:05 22:54:37 23° 273° (W) 22:58:06 434.975-435.025
DELFI C3 27 Mar 22:54:53 22:57:33 16° 280° (W) 23:00:09 145.870
M-CUBED/EXP-1 PRIME 27 Mar 22:55:09 22:59:09 30° 352° (N) 23:03:18 437.505
DANDE 27 Mar 22:55:48 22:58:25 51° 302° (WNW) 23:01:04 436.750
CINEMA 3 27 Mar 22:59:08 23:00:55 12° 287° (WNW) 23:02:36 145.822/145.860
HUMSAT D 27 Mar 23:02:35 23:06:01 24° 272° (W) 23:09:27 437.325/437.525
UNISAT 6 27 Mar 23:08:57 23:13:15 44° 100° (E) 23:17:38 437.425
STARS 27 Mar 23:16:18 23:19:52 25° 30° (NNE) 23:23:29 437.465
Oscar 11 27 Mar 23:16:19 23:18:15 12° 287° (WNW) 23:20:06 145.826/435.025
POPSAT HIP 1 27 Mar 23:17:36 23:21:29 34° 95° (E) 23:25:22 437.405
TIGRISAT 27 Mar 23:20:09 23:24:29 49° 102° (ESE) 23:28:55 435.000
UWE-3 27 Mar 23:21:55 23:24:06 14° 285° (WNW) 23:26:13 435.000/436.395/437.385
FUNcube-1 27 Mar 23:22:09 23:24:37 15° 283° (WNW) 23:27:03 145.935
VELOX 1 27 Mar 23:23:19 23:27:01 24° 272° (W) 23:30:40 145.980
CUBEBUG 2 27 Mar 23:23:35 23:25:23 12° 287° (WNW) 23:27:04 437.445
BUGSAT 1 27 Mar 23:27:03 23:30:42 31° 94° (E) 23:34:21 437.445
AISAT 27 Mar 23:27:20 23:30:56 23° 273° (W) 23:34:29 437.250
CUBEBUG 1 27 Mar 23:28:16 23:32:16 33° 266° (W) 23:36:16 437.445
NANOSAT C BR1 27 Mar 23:29:01 23:33:00 39° 98° (E) 23:37:00 145.865
POLYITAN 1 27 Mar 23:31:31 23:35:33 40° 99° (E) 23:39:35 437.675
SWISSCUBE 27 Mar 23:33:55 23:38:42 64° 55° (NE) 23:43:30 437.505
ZACube-1 27 Mar 23:35:00 23:37:01 13° 286° (WNW) 23:38:56 437.345
BEESAT 27 Mar 23:37:14 23:42:00 63° 55° (NE) 23:46:47 436.000
TISAT 1 27 Mar 23:40:27 23:44:38 56° 255° (WSW) 23:48:49 437.305
PCSat 27 Mar 23:40:38 23:45:04 25° 234° (SW) 23:49:25 145.827
SPROUT 27 Mar 23:44:02 23:48:15 51° 257° (WSW) 23:52:29 437.525
ANTELSAT 27 Mar 23:49:30 23:53:58 71° 109° (ESE) 23:58:33 437.575/2403.000
ESTCUBE 1 27 Mar 23:50:14 23:54:06 26° 272° (W) 23:57:55 437.505/2401.250
YUBILEINY 27 Mar 23:54:33 00:03:30 82° 65° (ENE) 00:12:22 435.215
CUSAT 1 28 Mar 00:01:44 00:03:45 19° 324° (NW) 00:05:53 437.405
MOZHAYETS 4 28 Mar 00:02:12 00:05:36 20° 17° (NNE) 00:09:00
Oscar 19 28 Mar 00:05:15 00:07:56 14° 71° (ENE) 00:10:43 437.125/150
AUBIESAT-1 28 Mar 00:06:35 00:10:32 30° 8° (N) 00:14:40 437.475
PRISM 28 Mar 00:07:46 00:10:32 17° 351° (N) 00:13:17 437.425
CUBESAT XI-V 28 Mar 00:08:18 00:11:33 19° 352° (N) 00:14:46 437.345
QB50P1 28 Mar 00:10:00 00:14:14 65° 108° (ESE) 00:18:27 145.935-145.965
SO-50 28 Mar 00:10:20 00:15:02 49° 186° (S) 00:19:49 436.795
STRAND 1 28 Mar 00:11:07 00:15:13 24° 346° (NNW) 00:19:17 437.568
50 SAT 28 Mar 00:12:35 00:14:17 12° 285° (WNW) 00:15:54 437.505
DUCHIFAT 1 28 Mar 00:12:57 00:17:11 67° 108° (ESE) 00:21:23 145.980
GONETS M04 28 Mar 00:13:01 00:21:06 38° 343° (NNW) 00:29:13
KKS-1 28 Mar 00:15:17 00:19:30 44° 49° (NE) 00:23:46 437.445
ITUPSAT 1 28 Mar 00:22:54 00:27:46 84° 244° (WSW) 00:32:39 437.325
QB50P2 28 Mar 00:24:12 00:28:28 78° 111° (ESE) 00:32:44 145.880/145.840
RS-15 28 Mar 00:24:21 00:35:19 71° 184° (S) 00:46:46 29.354- 29.394
M-CUBED/EXP-1 PRIME 28 Mar 00:29:13 00:33:12 32° 15° (NNE) 00:37:25 437.505
DANDE 28 Mar 00:40:46 00:42:24 15° 330° (NNW) 00:44:04 436.750
UNISAT 6 28 Mar 00:45:51 00:50:17 64° 302° (WNW) 00:54:48 437.425
STARS 28 Mar 00:51:27 00:55:43 53° 53° (NE) 01:00:02 437.465
POPSAT HIP 1 28 Mar 00:53:31 00:57:46 76° 298° (WNW) 01:02:00 437.405
TIGRISAT 28 Mar 00:57:01 01:01:23 57° 305° (NW) 01:05:50 435.000
BUGSAT 1 28 Mar 01:02:31 01:06:37 79° 297° (WNW) 01:10:40 437.445
NANOSAT C BR1 28 Mar 01:04:56 01:09:09 67° 300° (WNW) 01:13:21 145.865
ITAMSAT 1 28 Mar 01:06:38 01:09:39 15° 73° (ENE) 01:12:45 435.822/435.867
POLYITAN 1 28 Mar 01:07:31 01:11:44 65° 301° (WNW) 01:15:57 437.675
CUBEBUG 1 28 Mar 01:08:41 01:10:02 11° 289° (WNW) 01:11:16 437.445
SWISSCUBE 28 Mar 01:12:06 01:16:47 48° 259° (WSW) 01:21:29 437.505
BEESAT 28 Mar 01:15:24 01:20:05 48° 259° (W) 01:24:46 436.000
JAS-2 28 Mar 01:15:53 01:18:55 13° 45° (NE) 01:22:08 435.910
TISAT 1 28 Mar 01:18:22 01:21:20 18° 278° (W) 01:24:15 437.305
SPROUT 28 Mar 01:22:29 01:25:21 17° 280° (W) 01:28:08 437.525
ANTELSAT 28 Mar 01:26:27 01:30:41 43° 311° (NW) 01:34:59 437.575/2403.000
MOZHAYETS 4 28 Mar 01:37:41 01:41:51 33° 40° (NE) 01:46:03
AUBIESAT-1 28 Mar 01:40:27 01:44:39 42° 31° (NNE) 01:49:08 437.475
PRISM 28 Mar 01:41:58 01:44:49 18° 14° (NNE) 01:47:42 437.425
Oscar 19 28 Mar 01:44:00 01:48:49 38° 95° (E) 01:53:40 437.125/150
CUBESAT XI-V 28 Mar 01:44:19 01:47:43 20° 16° (NNE) 01:51:08 437.345
Gurwin Techsat 1B 28 Mar 01:44:57 01:48:58 21° 80° (E) 01:53:04 435.225
QB50P1 28 Mar 01:46:02 01:50:04 43° 310° (NW) 01:54:05 145.935-145.965
CUSAT 1 28 Mar 01:47:09 01:47:47 10° 352° (N) 01:48:25 437.405
DUCHIFAT 1 28 Mar 01:48:57 01:52:57 42° 311° (NW) 01:56:56 145.980
STRAND 1 28 Mar 01:49:12 01:53:13 24° 10° (N) 01:57:15 437.568
SO-50 28 Mar 01:50:34 01:55:02 35° 209° (SSW) 01:59:31 436.795
YUBILEINY 28 Mar 01:51:36 02:00:03 51° 272° (W) 02:08:24 435.215
KKS-1 28 Mar 01:51:39 01:56:05 67° 251° (WSW) 02:00:33 437.445
QB50P2 28 Mar 02:00:16 02:04:13 38° 313° (NW) 02:08:08 145.880/145.840
ITUPSAT 1 28 Mar 02:02:03 02:06:19 30° 269° (W) 02:10:34 437.325
M-CUBED/EXP-1 PRIME 28 Mar 02:03:13 02:07:30 51° 38° (NE) 02:12:06 437.505
HORYU 2 28 Mar 02:05:43 02:06:47 11° 70° (ENE) 02:07:59 437.375
AIST 1 28 Mar 02:11:01 02:11:33 10° 67° (ENE) 02:12:12
GONETS M04 28 Mar 02:12:28 02:20:31 37° 14° (NNE) 02:28:37
UNISAT 6 28 Mar 02:22:47 02:26:35 28° 324° (NW) 02:30:25 437.425
STARS 28 Mar 02:27:58 02:32:17 54° 256° (WSW) 02:36:38 437.465
POPSAT HIP 1 28 Mar 02:29:34 02:33:17 30° 320° (NW) 02:36:58 437.405
TIGRISAT 28 Mar 02:33:54 02:37:35 26° 327° (NNW) 02:41:19 435.000
RS-15 28 Mar 02:36:05 02:46:51 57° 215° (SW) 02:58:04 29.354- 29.394
BUGSAT 1 28 Mar 02:38:11 02:41:45 29° 319° (NW) 02:45:17 437.445
NANOSAT C BR1 28 Mar 02:40:57 02:44:33 27° 323° (NW) 02:48:08 145.865
POLYITAN 1 28 Mar 02:43:36 02:47:11 27° 324° (NW) 02:50:46 437.675
ITAMSAT 1 28 Mar 02:45:41 02:50:38 41° 98° (E) 02:55:34 435.822/435.867
AO-7 28 Mar 02:47:38 02:53:45 22° 73° (ENE) 03:00:01 29.400- 29.500
SWISSCUBE 28 Mar 02:52:38 02:55:51 17° 282° (WNW) 02:58:58 437.505
BEESAT 28 Mar 02:55:55 02:59:07 17° 282° (WNW) 03:02:14 436.000
JAS-2 28 Mar 03:00:38 03:07:03 27° 73° (ENE) 03:13:29 435.910
ANTELSAT 28 Mar 03:03:17 03:06:44 22° 334° (NNW) 03:10:13 437.575/2403.000
MOZHAYETS 4 28 Mar 03:14:02 03:18:43 79° 63° (ENE) 03:23:24
AUBIESAT-1 28 Mar 03:14:51 03:19:14 90° 55° (NE) 03:23:58 437.475
PRISM 28 Mar 03:15:42 03:19:21 28° 37° (NE) 03:23:00 437.425
CUBESAT XI-V 28 Mar 03:19:59 03:24:11 33° 40° (NE) 03:28:23 437.345
QB50P1 28 Mar 03:21:59 03:25:14 21° 333° (NNW) 03:28:26 145.935-145.965
Oscar 19 28 Mar 03:23:29 03:28:40 82° 300° (WNW) 03:33:53 437.125/150
Gurwin Techsat 1B 28 Mar 03:24:50 03:30:07 57° 104° (ESE) 03:35:23 435.225
DUCHIFAT 1 28 Mar 03:24:52 03:28:04 21° 333° (NNW) 03:31:14 145.980
STRAND 1 28 Mar 03:26:48 03:31:25 34° 34° (NE) 03:36:02 437.568
KKS-1 28 Mar 03:30:02 03:33:33 22° 275° (W) 03:37:01 437.445
CUSAT 1 28 Mar 03:30:40 03:32:00 12° 20° (NNE) 03:33:27 437.405
SO-50 28 Mar 03:31:14 03:34:34 18° 231° (SW) 03:37:51 436.795
QB50P2 28 Mar 03:36:13 03:39:19 20° 336° (NNW) 03:42:24 145.880/145.840
M-CUBED/EXP-1 PRIME 28 Mar 03:38:00 03:42:20 69° 241° (WSW) 03:47:02 437.505
O/OREOS (USA 219) 28 Mar 03:40:26 03:42:27 13° 101° (E) 03:44:36 437.305
HORYU 2 28 Mar 03:40:52 03:44:54 32° 93° (E) 03:48:59 437.375
AIST 1 28 Mar 03:44:10 03:48:03 31° 90° (E) 03:51:55
ITUPSAT 1 28 Mar 03:44:57 03:45:54 10° 294° (WNW) 03:46:42 437.325
YUBILEINY 28 Mar 03:48:22 03:55:03 25° 300° (WNW) 04:01:34 435.215
UNISAT 6 28 Mar 03:59:20 04:02:20 18° 348° (NNW) 04:05:23 437.425
POPSAT HIP 1 28 Mar 04:05:22 04:08:14 18° 343° (NNW) 04:11:04 437.405
STARS 28 Mar 04:06:41 04:09:44 18° 279° (W) 04:12:43 437.465
DANDE 28 Mar 04:10:12 04:11:40 13° 26° (NNE) 04:13:16 436.750
TIGRISAT 28 Mar 04:10:20 04:13:16 18° 350° (N) 04:16:15 435.000
GONETS M04 28 Mar 04:10:50 04:19:27 54° 44° (NE) 04:28:06
BUGSAT 1 28 Mar 04:13:38 04:16:19 17° 342° (NNW) 04:18:59 437.445
NANOSAT C BR1 28 Mar 04:16:39 04:19:25 17° 346° (NNW) 04:22:11 145.865
POLYITAN 1 28 Mar 04:19:20 04:22:06 17° 347° (NNW) 04:24:52 437.675
ITAMSAT 1 28 Mar 04:25:20 04:30:34 77° 302° (WNW) 04:35:47 435.822/435.867
ANTELSAT 28 Mar 04:39:30 04:42:22 17° 358° (N) 04:45:16 437.575/2403.000
AO-7 28 Mar 04:40:53 04:48:54 49° 100° (E) 04:56:54 29.400- 29.500
JAS-2 28 Mar 04:46:02 04:53:48 57° 99° (E) 05:01:24 435.910
RS-15 28 Mar 04:47:43 04:57:17 34° 244° (WSW) 05:07:03 29.354- 29.394
PRISM 28 Mar 04:50:10 04:54:24 69° 59° (ENE) 04:58:38 437.425
AUBIESAT-1 28 Mar 04:50:38 04:54:35 33° 257° (WSW) 04:58:47 437.475
MOZHAYETS 4 28 Mar 04:52:04 04:56:23 35° 266° (W) 05:00:42
Cubesat XI-IV 28 Mar 04:54:33 04:57:27 15° 71° (ENE) 05:00:29 437.490
CUTE-I 28 Mar 04:54:52 04:57:45 15° 71° (ENE) 05:00:45 437.470
CUBESAT XI-V 28 Mar 04:56:30 05:01:14 77° 63° (ENE) 05:05:57 437.345
QB50P1 28 Mar 04:57:22 04:59:58 16° 356° (N) 05:02:33 145.935-145.965
DUCHIFAT 1 28 Mar 05:00:11 05:02:45 16° 357° (N) 05:05:18 145.980
Oscar 19 28 Mar 05:02:57 05:07:41 37° 322° (NW) 05:12:25 437.125/150
Gurwin Techsat 1B 28 Mar 05:04:59 05:10:15 59° 308° (NW) 05:15:30 435.225
STRAND 1 28 Mar 05:05:01 05:10:10 72° 57° (ENE) 05:15:19 437.568
QB50P2 28 Mar 05:11:28 05:14:03 16° 360° (N) 05:16:38 145.880/145.840
CUSAT 1 28 Mar 05:13:08 05:15:47 26° 44° (NE) 05:19:00 437.405
M-CUBED/EXP-1 PRIME 28 Mar 05:14:26 05:18:01 24° 264° (W) 05:21:48 437.505
O/OREOS (USA 219) 28 Mar 05:16:36 05:20:47 35° 123° (ESE) 05:25:00 437.305
HORYU 2 28 Mar 05:17:32 05:22:04 86° 297° (WNW) 05:26:36 437.375
AIST 1 28 Mar 05:20:57 05:25:24 84° 292° (WNW) 05:29:50
UNISAT 6 28 Mar 05:34:56 05:37:53 18° 11° (NNE) 05:40:55 437.425
POPSAT HIP 1 28 Mar 05:40:17 05:42:53 16° 7° (N) 05:45:31 437.405
YUBILEINY 28 Mar 05:45:14 05:48:35 13° 329° (NNW) 05:51:47 435.215
TIGRISAT 28 Mar 05:45:49 05:48:48 18° 14° (NNE) 05:51:50 435.000
BUGSAT 1 28 Mar 05:48:12 05:50:36 15° 6° (N) 05:53:00 437.445
NANOSAT C BR1 28 Mar 05:51:24 05:54:03 17° 10° (N) 05:56:43 145.865
DANDE 28 Mar 05:53:04 05:55:47 33° 51° (NE) 05:59:03 436.750
POLYITAN 1 28 Mar 05:54:07 05:56:48 17° 10° (N) 05:59:30 437.675
ITAMSAT 1 28 Mar 06:04:56 06:09:40 36° 324° (NW) 06:14:24 435.822/435.867
GONETS M04 28 Mar 06:08:16 06:17:07 85° 253° (WSW) 06:26:00
ANTELSAT 28 Mar 06:14:44 06:17:57 20° 21° (NNE) 06:21:15 437.575/2403.000
HO-68 28 Mar 06:17:17 06:19:14 11° 54° (NE) 06:21:27 435.675
